TimeCDT,TemperatureF,Dew PointF,Humidity,Sea Level PressureIn,VisibilityMPH,Wind Direction,Wind SpeedMPH,Gust SpeedMPH,PrecipitationIn,Events,Conditions,WindDirDegrees,DateUTC
12:53 AM,73.0,63.0,71,30.01,10.0,Calm,Calm,-,N/A,,Clear,0,2013-08-22 05:53:00
1:53 AM,73.0,62.1,68,30.02,10.0,Calm,Calm,-,N/A,,Clear,0,2013-08-22 06:53:00
2:53 AM,72.0,60.1,66,30.01,10.0,North,6.9,-,N/A,,Clear,10,2013-08-22 07:53:00
3:53 AM,72.0,57.9,61,30.04,10.0,NNE,5.8,-,N/A,,Mostly Cloudy,20,2013-08-22 08:53:00
4:53 AM,71.1,54.0,55,30.05,10.0,Variable,4.6,-,N/A,,Clear,0,2013-08-22 09:53:00
5:53 AM,70.0,53.1,55,30.06,10.0,North,8.1,-,N/A,,Clear,10,2013-08-22 10:53:00
6:53 AM,69.1,52.0,54,30.07,10.0,NNE,10.4,18.4,N/A,,Clear,30,2013-08-22 11:53:00
7:53 AM,68.0,53.1,59,30.11,10.0,Variable,5.8,-,N/A,,Clear,0,2013-08-22 12:53:00
8:53 AM,70.0,53.1,55,30.11,10.0,NE,6.9,-,N/A,,Clear,50,2013-08-22 13:53:00
9:53 AM,75.0,51.1,43,30.10,10.0,ENE,9.2,-,N/A,,Clear,60,2013-08-22 14:53:00
10:53 AM,77.0,51.1,40,30.10,10.0,NE,9.2,18.4,N/A,,Clear,40,2013-08-22 15:53:00
11:53 AM,81.0,48.9,33,30.10,10.0,NNE,10.4,-,N/A,,Clear,30,2013-08-22 16:53:00
12:53 PM,82.9,48.9,31,30.09,10.0,Variable,6.9,-,N/A,,Clear,0,2013-08-22 17:53:00
1:53 PM,82.9,48.9,31,30.09,10.0,NE,8.1,-,N/A,,Clear,40,2013-08-22 18:53:00
2:53 PM,84.9,50.0,30,30.08,10.0,NNE,9.2,-,N/A,,Clear,20,2013-08-22 19:53:00
3:53 PM,84.9,50.0,30,30.07,10.0,NE,5.8,-,N/A,,Clear,50,2013-08-22 20:53:00
4:53 PM,84.9,46.9,27,30.07,10.0,NNW,8.1,-,N/A,,Clear,340,2013-08-22 21:53:00
5:53 PM,84.0,46.9,27,30.07,10.0,NNW,5.8,-,N/A,,Clear,330,2013-08-22 22:53:00
6:53 PM,82.9,46.9,28,30.07,10.0,North,6.9,-,N/A,,Clear,360,2013-08-22 23:53:00
7:53 PM,80.1,50.0,35,30.07,10.0,North,6.9,-,N/A,,Clear,360,2013-08-23 00:53:00
8:53 PM,77.0,51.1,40,30.09,10.0,North,6.9,-,N/A,,Clear,360,2013-08-23 01:53:00
9:53 PM,73.9,52.0,46,30.10,10.0,Calm,Calm,-,N/A,,Clear,0,2013-08-23 02:53:00
10:53 PM,72.0,51.1,48,30.11,10.0,Calm,Calm,-,N/A,,Clear,0,2013-08-23 03:53:00
11:53 PM,71.1,48.9,45,30.12,10.0,Calm,Calm,-,N/A,,Clear,0,2013-08-23 04:53:00